Weather in Colmar

France     48°04′48″N   7°21′53″E
temp.,
°C
wind,
m/s
gust,
m/s
humid.,
%
clouds,
%
prec.,
mm/h
press.,
hPa
HPBL,
m
10 august, wed
wed1023:00+18nw32465 0.0 102228
02:00+17nnw33495 0.0 102343
05:00+16nnw35610 0.0 102293
08:00+18n38600 0.0 1022374
11:00+25ne57370 0.0 10211439
14:00+28ne67240 0.0 10202114
17:00+29ne562413 0.0 10192261
20:00+25ene49330 0.0 1019431
11 august, thu
thu1123:00+18nnw22502 0.0 102020
02:00+16nnw33570 0.0 102039
05:00+14nnw24645 0.0 102058
08:00+16n36595 0.0 1020257
11:00+23ne35375 0.0 1020969
14:00+28ne44236 0.0 10171992
17:00+29ne55225 0.0 10162182
20:00+25ne493260 0.0 1016395
12 august, fri
fri1223:00+19nnw224746 0.0 101827
02:00+16nnw235713 0.0 101838
05:00+15nnw346218 0.0 101867
08:00+17n25584 0.0 1018208
11:00+23ne35349 0.0 1017960
14:00+29ne56205 0.0 10151986
17:00+29ne66190 0.0 10142294
20:00+24ene49290 0.0 1015359
13 august, sat
sat1323:00+17w22470 0.0 101614
02:00+16nw21510 0.0 101611
05:00+14nnw23570 0.0 101649
08:00+16n26580 0.0 1017257
11:00+22ne35380 0.0 10161051
14:00+28ene56230 0.0 10142068
17:00+29ne45210 0.0 10142269
20:00+24ene25340 0.0 101497
14 august, sun
sun1423:00+18w32450 0.0 101524
02:00+17wnw21505 0.0 101413
05:00+16nnw2254100 0.0 101418
08:00+17sw1158100 0.0 101334
11:00+24se2237100 0.0 1012574
14:00+29ese1127100 0.0 10111337
17:00+30s122440 0.0 10091688
20:00+25w11405 0.0 100813